BAW867 EGLL-LHBP

Flight info

Callsign BAW867
Flight time N/A
Altitude 37000
Route BPK Q295 BRAIN M197 REDFA L620 TACHA DCT OTMEC DCT NOMKA DCT OMELO DCT EVIKU DCT BNO DCT ODNEM DCT BERVA DCT NIT/N0421F230 M748 ARFOX
Aircraft A319/M-SDE3FGHIRWY/LB1

Departure

Time N/A
Airport London Heathrow Airport (EGLL)

Arrival

Time 2026-05-03 20:33
Airport Budapest Liszt Ferenc International Airport (LHBP)
Time Latitude Longitude Altitude Speed Heading
2026-05-03 20:15 48.12940 18.31912 34991 ft 473 kts 130°
2026-05-03 20:15 48.10720 18.35578 34076 ft 478 kts 130°
2026-05-03 20:15 48.08470 18.39278 33211 ft 481 kts 130°
2026-05-03 20:15 48.06213 18.42983 32146 ft 482 kts 130°
2026-05-03 20:16 48.03967 18.46668 31055 ft 477 kts 130°
2026-05-03 20:16 48.01742 18.50322 29980 ft 472 kts 130°
2026-05-03 20:16 47.99616 18.53945 28734 ft 466 kts 126°
2026-05-03 20:16 47.97819 18.57922 27649 ft 456 kts 117°
2026-05-03 20:17 47.96429 18.62151 26441 ft 456 kts 110°
2026-05-03 20:17 47.95384 18.66645 25247 ft 461 kts 106°
2026-05-03 20:17 47.94383 18.71168 24460 ft 457 kts 107°
2026-05-03 20:17 47.93383 18.75648 23640 ft 453 kts 107°
2026-05-03 20:18 47.92387 18.80080 22767 ft 448 kts 107°
2026-05-03 20:18 47.91400 18.84449 21981 ft 442 kts 107°
2026-05-03 20:18 47.90425 18.88748 21202 ft 436 kts 107°
2026-05-03 20:18 47.89460 18.93011 20427 ft 430 kts 107°
2026-05-03 20:19 47.88325 18.97055 19671 ft 427 kts 116°
2026-05-03 20:19 47.86724 19.00827 18866 ft 425 kts 125°
2026-05-03 20:19 47.84809 19.04091 18068 ft 422 kts 131°
2026-05-03 20:19 47.82812 19.07278 17316 ft 416 kts 131°
2026-05-03 20:20 47.80853 19.10412 16611 ft 410 kts 131°
2026-05-03 20:20 47.78927 19.13496 15948 ft 405 kts 131°
2026-05-03 20:20 47.77021 19.16551 15319 ft 400 kts 131°
2026-05-03 20:20 47.75144 19.19566 14704 ft 394 kts 131°
2026-05-03 20:21 47.73350 19.22521 14533 ft 376 kts 130°
2026-05-03 20:21 47.71653 19.25362 14411 ft 358 kts 130°
2026-05-03 20:21 47.70041 19.28076 14296 ft 342 kts 129°
2026-05-03 20:21 47.68503 19.30659 14169 ft 326 kts 129°
2026-05-03 20:22 47.67037 19.33105 13907 ft 310 kts 129°
2026-05-03 20:22 47.65610 19.35442 13470 ft 303 kts 130°
2026-05-03 20:22 47.64178 19.37729 13211 ft 302 kts 133°
2026-05-03 20:22 47.62439 19.39380 12949 ft 305 kts 159°
2026-05-03 20:23 47.60340 19.39756 12693 ft 308 kts 186°
2026-05-03 20:23 47.58321 19.38701 12403 ft 311 kts 211°
2026-05-03 20:23 47.56609 19.36656 11772 ft 320 kts 221°
2026-05-03 20:23 47.55115 19.34325 11613 ft 304 kts 239°
2026-05-03 20:24 47.54424 19.31486 11366 ft 289 kts 265°
2026-05-03 20:24 47.54599 19.28587 10856 ft 283 kts 291°
2026-05-03 20:24 47.55568 19.26124 10354 ft 277 kts 313°
2026-05-03 20:24 47.56860 19.24028 9922 ft 272 kts 314°
2026-05-03 20:25 47.58107 19.22022 9778 ft 256 kts 314°
2026-05-03 20:25 47.59277 19.20134 9599 ft 242 kts 314°
2026-05-03 20:25 47.60393 19.18327 9235 ft 235 kts 314°
2026-05-03 20:25 47.61497 19.16539 8875 ft 235 kts 314°
2026-05-03 20:26 47.62594 19.14759 8540 ft 234 kts 314°
2026-05-03 20:26 47.63674 19.13003 8204 ft 233 kts 313°
2026-05-03 20:26 47.64767 19.11226 7860 ft 232 kts 313°
2026-05-03 20:26 47.65657 19.09245 7525 ft 232 kts 291°
2026-05-03 20:27 47.65943 19.06921 7194 ft 229 kts 267°
2026-05-03 20:27 47.65604 19.04633 6804 ft 229 kts 245°
2026-05-03 20:27 47.64677 19.02678 6196 ft 237 kts 222°
2026-05-03 20:27 47.63409 19.01064 5539 ft 241 kts 212°
2026-05-03 20:28 47.61901 19.00039 4959 ft 239 kts 193°
2026-05-03 20:28 47.60276 18.99851 4595 ft 229 kts 174°
2026-05-03 20:28 47.58788 19.00417 4350 ft 215 kts 156°
2026-05-03 20:28 47.57553 19.01548 4111 ft 205 kts 140°
2026-05-03 20:29 47.56607 19.02997 3866 ft 192 kts 134°
2026-05-03 20:29 47.55728 19.04429 3605 ft 185 kts 134°
2026-05-03 20:29 47.54870 19.05827 3386 ft 183 kts 135°
2026-05-03 20:29 47.54015 19.07219 3133 ft 181 kts 135°
2026-05-03 20:30 47.53171 19.08593 2892 ft 180 kts 135°
2026-05-03 20:30 47.52340 19.09947 2654 ft 174 kts 134°
2026-05-03 20:30 47.51541 19.11247 2434 ft 169 kts 134°
2026-05-03 20:30 47.50752 19.12528 2201 ft 169 kts 135°
2026-05-03 20:31 47.49963 19.13811 1975 ft 168 kts 134°
2026-05-03 20:31 47.49190 19.15067 1751 ft 167 kts 134°
2026-05-03 20:31 47.48407 19.16337 1528 ft 167 kts 134°
2026-05-03 20:31 47.47623 19.17610 1299 ft 169 kts 133°
2026-05-03 20:32 47.46837 19.18885 1068 ft 163 kts 132°
2026-05-03 20:32 47.46124 19.20039 850 ft 141 kts 131°
2026-05-03 20:32 47.45496 19.21056 670 ft 130 kts 131°
2026-05-03 20:32 47.44901 19.22022 506 ft 125 kts 130°
2026-05-03 20:33 47.44354 19.22929 464 ft 104 kts 132°
2026-05-03 20:33 47.43977 19.23518 461 ft 54 kts 132°
2026-05-03 20:33 47.43784 19.23839 463 ft 28 kts 129°
2026-05-03 20:33 47.43696 19.24099 464 ft 26 kts 106°
2026-05-03 20:34 47.43663 19.24306 467 ft 16 kts 104°
2026-05-03 20:34 47.43630 19.24435 465 ft 14 kts 116°
2026-05-03 20:34 47.43565 19.24584 466 ft 20 kts 127°
2026-05-03 20:34 47.43457 19.24763 468 ft 27 kts 132°
2026-05-03 20:35 47.43354 19.24932 468 ft 20 kts 132°
2026-05-03 20:35 47.43265 19.25076 468 ft 16 kts 131°
2026-05-03 20:35 47.43249 19.25251 468 ft 20 kts 60°
2026-05-03 20:35 47.43331 19.25374 469 ft 18 kts 55°
2026-05-03 20:36 47.43277 19.25535 469 ft 21 kts 133°
2026-05-03 20:36 47.43192 19.25672 466 ft 19 kts 131°
2026-05-03 20:36 47.43124 19.25787 469 ft 16 kts 131°
2026-05-03 20:36 47.43062 19.25888 469 ft 8 kts 131°
2026-05-03 20:37 47.43050 19.25955 469 ft 9 kts 56°
2026-05-03 20:37 47.43083 19.25996 469 ft 4 kts 41°
2026-05-03 20:37 47.43087 19.26001 466 ft 0 kts 41°